Overview Statistics Trail Chart Weather Telemetry Raw packets
 

This is the latest recevied weather packets stored in our database for station/object DL6DJ-15. If no packets are shown the sender has not sent any weather packets the latest 10 day(s).

<< 102 103 104 105 106 107 108 >>
Time Temp. Humidity Pressure Rain* Wind** Luminosity Snow
1787837305 30.56° C 36% 1016.5 hPa - - - -
1787837005 31.11° C 36% 1016.4 hPa - - - -
1787836704 30.56° C 34% 1016.4 hPa - - - -
1787836404 30.56° C 35% 1016.5 hPa - - - -
1787836104 30.56° C 35% 1016.4 hPa - - - -
1787835804 30.56° C 35% 1016.5 hPa - - - -
1787835503 30.56° C 34% 1016.4 hPa - - - -
1787835203 31.11° C 33% 1016.4 hPa - - - -
1787834902 31.11° C 34% 1016.6 hPa - - - -
1787834601 31.11° C 33% 1016.8 hPa - - - -
1787834301 31.11° C 34% 1016.8 hPa - - - -
1787834000 31.11° C 33% 1016.8 hPa - - - -
1787833700 31.67° C 33% 1016.7 hPa - - - -
1787833400 31.67° C 35% 1016.8 hPa - - - -
1787833100 31.67° C 35% 1016.8 hPa - - - -
1787832799 31.67° C 33% 1016.8 hPa - - - -
1787832498 31.11° C 33% 1016.8 hPa - - - -
1787832198 31.11° C 33% 1016.8 hPa - - - -
1787831898 31.67° C 32% 1017 hPa - - - -
1787831597 31.67° C 33% 1017 hPa - - - -
1787831297 31.67° C 33% 1017 hPa - - - -
1787830997 31.67° C 31% 1017 hPa - - - -
1787830696 31.67° C 32% 1017.1 hPa - - - -
1787830396 32.78° C 31% 1017.2 hPa - - - -
1787830095 32.22° C 30% 1017.3 hPa - - - -

* Rain since midnight (hover to see other rain measurements)
** Current wind speed in m/s (hover to see current wind gust speed)